Regional Weather Roundup
Issued by NWS

Home | Current Version | Previous Version | Text Only | Print | Product List | Glossary On
Versions: 1 2 3 4 5 6 7 8 9 10 11 12 13 14 15 16 17 18 19 20 21 22 23 24 25 26 27 28 29 30 31 32 33 34 35 36 37 38 39 40 41 42 43 44 45 46 47 48 49 50
636
ASUS45 KSLC 012010
RWRUT

UTAH REGIONAL WEATHER ROUNDUP
NATIONAL WEATHER SERVICE SALT LAKE CITY UT
100 PM MST WED MAR 01 2017

UTZ001>011-023>025-012100-

NORTHERN UTAH

CITY           SKY/WX    TMP DP  RH WIND       PRES   REMARKS
BRIGHAM CITY     N/A     38  21  51 S9        30.46F WCI  31
DUGWAY         MOSUNNY   38  13  36 SE5       30.46  WCI  35
HILL AFB       PTSUNNY   35  15  43 SW7       30.44F WCI  29
LOGAN          CLOUDY    38  18  44 CALM      30.43F
OGDEN          MOSUNNY   37  16  42 VRB6      30.44F WCI  32
SALT LAKE CITY PTSUNNY   40  18  41 VRB5      30.45F
TOOELE VALLEY  MOSUNNY   39  18  41 SE3       30.45F
WENDOVER       SUNNY     41  14  33 SE8       30.44F
HEBER CITY     CLOUDY    30  12  47 CALM      30.41F
WEST JORDAN    SUNNY     40  26  56 S6        30.45F

$$

UTZ011>015-024>027-012100-

CENTRAL/NORTHEAST UTAH

CITY           SKY/WX    TMP DP  RH WIND       PRES   REMARKS
PROVO AIRPORT  MOSUNNY   33  19  56 SW5       30.48F WCI  29
MOAB/CANYONLAN SUNNY     41   7  24 W9G17     30.39F
DELTA          MOSUNNY   36  16  44 NE5       30.46F WCI  32
PRICE          SUNNY     37  13  37 NW10      30.36F WCI  30
RICHFIELD      SUNNY     37  10  32 CALM      30.43F
ROOSEVELT      SUNNY     32  14  47 NE8       30.41F WCI  25
VERNAL         SUNNY     31  12  45 CALM      30.40F

$$

UTZ013>016-019>022-027-012100-

SOUTHERN UTAH

CITY           SKY/WX    TMP DP  RH WIND       PRES   REMARKS
BRYCE CANYON   SUNNY     34   7  32 NE3       30.35F
CEDAR CITY     SUNNY     42  13  30 VRB5      30.38F
MILFORD        SUNNY     40  16  37 N15       30.42F WCI  32
ST GEORGE      PTCLDY    50  17  27 VRB6      30.41F
HANKSVILLE     SUNNY     43   9  24 SW6       30.43F
KANAB          SUNNY     46  10  23 SE5G12    30.41F
BLANDING       SUNNY     37  12  35 S9        30.43F WCI  31

$$

REGIONAL REPORTS     COLORADO/ARIZONA

CITY           SKY/WX    TMP DP  RH WIND       PRES   REMARKS
CRAIG, CO      SUNNY     27  10  49 CALM      30.36F
GRAND JUNCTION SUNNY     37  12  35 NW5       30.40F WCI  33
RIFLE, CO      SUNNY     34   9  35 W6        30.37F WCI  29
MONTROSE, CO   SUNNY     32   9  38 NE6       30.41F WCI  26
CORTEZ, CO     SUNNY     35  13  40 NW9       30.36F WCI  28
COLORADO CITY    N/A     48  12  23 N3        30.40F
PAGE, AZ       SUNNY     46   7  20 VRB5      30.39F
GRAND CANYON   SUNNY     37  17  44 NE9       30.37F WCI  30
KINGMAN, AZ    SUNNY     54  11  18 N10       30.35F
FLAGSTAFF, AZ  SUNNY     33  13  43 E12       30.34F WCI  24

$$

REGIONAL REPORTS    NEVADA/IDAHO/WYOMING

CITY           SKY/WX    TMP DP  RH WIND       PRES   REMARKS
LAS VEGAS, NV  SUNNY     58  12  16 N6        30.39F
ELY, NY        SUNNY     35  11  36 CALM      30.40F
ELKO, NV       SUNNY     40  16  37 SW12      30.43S WCI  33
POCATELLO, ID  CLOUDY    35  24  64 SW24      30.39F WCI  23
BURLEY, ID       N/A     40  23  50 W14       30.40F WCI  32
FORT BRIDGER,  CLOUDY    26  18  72 W25       30.35F WCI  10
EVANSTON, WY   CLOUDY    24  15  68 SW21      30.34S WCI   9
ROCK SPRINGS,  MIX PCPN  25  15  66 W28       30.29F WCI   9

$$




USA.gov is the U.S. government's official web portal to all federal, state and local government web resources and services.